QPF
0.00 0.00 0.00 0.00 0.01 0.02 0.01 0.00 0.01 0.02 0.04 0.04 0.03 0.03 0.03 0.03 0.04 0.04 0.05 0.07 0.06 0.06 0.07 0.04 0.04 0.05 0.06 0.07 0.06 0.07 0.09 0.09 0.08 0.08 0.07 0.06 0.04 0.04 0.03 0.03 0.03 0.02 0.03
0.00 0.00 0.00 0.00 0.01 0.02 0.01 0.01 0.01 0.01 0.02 0.05 0.09 0.09 0.07 0.05 0.05 0.05 0.06 0.07 0.06 0.05 0.05 0.05 0.06 0.07 0.07 0.07 0.08 0.07 0.07 0.07 0.08 0.09 0.09 0.08 0.06 0.04 0.03 0.02 0.02 0.03 0.03
0.00 0.00 0.00 0.00 0.00 0.00 0.00 0.01 0.01 0.01 0.01 0.03 0.06 0.07 0.06 0.06 0.07 0.06 0.06 0.07 0.05 0.04 0.03 0.04 0.06 0.08 0.07 0.07 0.07 0.07 0.09 0.09 0.08 0.08 0.10 0.10 0.08 0.06 0.05 0.03 0.02 0.03 0.03
0.00 0.00 0.00 0.00 0.01 0.00 0.00 0.00 0.00 0.01 0.01 0.01 0.02 0.02 0.03 0.05 0.07 0.07 0.08 0.07 0.05 0.03 0.03 0.03 0.06 0.06 0.06 0.07 0.06 0.06 0.08 0.09 0.09 0.07 0.08 0.08 0.07 0.08 0.07 0.05 0.03 0.02 0.03
0.00 0.00 0.00 0.00 0.00 0.00 0.00 0.00 0.00 0.01 0.01 0.01 0.01 0.02 0.01 0.02 0.03 0.04 0.05 0.06 0.05 0.05 0.04 0.05 0.06 0.06 0.06 0.06 0.06 0.07 0.06 0.07 0.09 0.09 0.08 0.07 0.07 0.07 0.07 0.06 0.05 0.03 0.02
0.00 0.00 0.00 0.00 0.00 0.00 0.00 0.00 0.00 0.01 0.01 0.01 0.01 0.01 0.01 0.02 0.03 0.03 0.03 0.04 0.07 0.09 0.10 0.08 0.09 0.08 0.06 0.06 0.06 0.07 0.06 0.06 0.07 0.07 0.07 0.08 0.08 0.07 0.08 0.07 0.07 0.05 0.03
0.00 0.00 0.00 0.00 0.00 0.00 0.00 0.00 0.00 0.01 0.01 0.01 0.01 0.01 0.02 0.02 0.02 0.02 0.03 0.03 0.03 0.05 0.07 0.07 0.07 0.07 0.05 0.05 0.05 0.05 0.06 0.06 0.07 0.06 0.05 0.07 0.07 0.07 0.08 0.08 0.06 0.05 0.03
0.00 0.00 0.00 0.00 0.00 0.00 0.00 0.00 0.00 0.01 0.01 0.02 0.01 0.01 0.01 0.01 0.02 0.02 0.02 0.02 0.02 0.02 0.04 0.05 0.04 0.05 0.05 0.04 0.05 0.05 0.05 0.06 0.07 0.07 0.08 0.08 0.07 0.08 0.08 0.09 0.09 0.07 0.05
0.00 0.00 0.00 0.00 0.00 0.00 0.01 0.01 0.01 0.03 0.03 0.02 0.01 0.01 0.00 0.00 0.01 0.01 0.01 0.01 0.02 0.02 0.03 0.03 0.03 0.03 0.05 0.06 0.07 0.06 0.07 0.06 0.06 0.06 0.06 0.06 0.05 0.05 0.07 0.08 0.10 0.11 0.09
0.00 0.00 0.00 0.00 0.00 0.01 0.01 0.01 0.04 0.08 0.07 0.03 0.01 0.01 0.01 0.00 0.00 0.00 0.00 0.01 0.02 0.03 0.03 0.02 0.02 0.02 0.04 0.05 0.05 0.05 0.04 0.04 0.04 0.04 0.04 0.06 0.06 0.06 0.06 0.06 0.06 0.08 0.08
0.00 0.00 0.00 0.00 0.01 0.01 0.01 0.02 0.04 0.07 0.05 0.02 0.01 0.01 0.01 0.01 0.00 0.00 0.00 0.01 0.01 0.02 0.02 0.01 0.02 0.02 0.03 0.03 0.04 0.04 0.04 0.04 0.04 0.04 0.05 0.07 0.07 0.06 0.06 0.06 0.05 0.06 0.07
0.01 0.01 0.01 0.01 0.01 0.01 0.01 0.01 0.02 0.02 0.01 0.01 0.02 0.01 0.01 0.00 0.00 0.00 0.01 0.01 0.01 0.01 0.01 0.01 0.01 0.01 0.02 0.02 0.03 0.03 0.03 0.03 0.04 0.05 0.05 0.06 0.07 0.07 0.06 0.07 0.06 0.06 0.07
0.00 0.01 0.01 0.01 0.01 0.01 0.01 0.01 0.01 0.01 0.01 0.01 0.02 0.01 0.01 0.01 0.00 0.00 0.00 0.01 0.01 0.01 0.01 0.01 0.01 0.01 0.01 0.02 0.02 0.03 0.03 0.03 0.03 0.04 0.05 0.05 0.06 0.06 0.06 0.06 0.06 0.06 0.07
0.00 0.00 0.00 0.01 0.01 0.01 0.01 0.01 0.02 0.02 0.03 0.03 0.02 0.02 0.01 0.01 0.01 0.01 0.01 0.01 0.01 0.01 0.02 0.02 0.01 0.01 0.01 0.01 0.02 0.02 0.03 0.02 0.02 0.02 0.04 0.04 0.05 0.06 0.06 0.06 0.06 0.07 0.06
0.00 0.00 0.00 0.01 0.01 0.01 0.01 0.02 0.02 0.03 0.04 0.04 0.04 0.04 0.03 0.02 0.02 0.02 0.02 0.02 0.02 0.02 0.03 0.03 0.02 0.02 0.01 0.01 0.02 0.02 0.02 0.02 0.01 0.02 0.03 0.03 0.03 0.05 0.06 0.05 0.05 0.06 0.06
0.00 0.00 0.00 0.01 0.01 0.01 0.01 0.01 0.02 0.02 0.02 0.03 0.04 0.04 0.06 0.06 0.04 0.04 0.05 0.05 0.04 0.04 0.04 0.04 0.03 0.03 0.02 0.01 0.01 0.02 0.03 0.03 0.03 0.04 0.04 0.03 0.03 0.04 0.05 0.05 0.05 0.06 0.06
0.00 0.00 0.01 0.01 0.01 0.01 0.01 0.01 0.02 0.02 0.02 0.02 0.02 0.02 0.04 0.05 0.05 0.04 0.04 0.04 0.04 0.04 0.04 0.04 0.03 0.02 0.02 0.02 0.02 0.01 0.03 0.04 0.05 0.05 0.05 0.04 0.03 0.05 0.05 0.06 0.06 0.06 0.07
0.02 0.01 0.01 0.01 0.01 0.02 0.01 0.02 0.03 0.03 0.03 0.02 0.02 0.01 0.02 0.03 0.04 0.04 0.03 0.04 0.05 0.04 0.03 0.03 0.03 0.02 0.02 0.02 0.02 0.01 0.02 0.03 0.04 0.04 0.05 0.04 0.03 0.04 0.05 0.06 0.06 0.06 0.06
0.01 0.01 0.02 0.01 0.02 0.02 0.02 0.02 0.02 0.02 0.02 0.02 0.02 0.02 0.02 0.03 0.03 0.03 0.04 0.04 0.04 0.05 0.05 0.04 0.03 0.03 0.02 0.03 0.04 0.03 0.03 0.03 0.03 0.03 0.04 0.04 0.04 0.05 0.06 0.05 0.05 0.04 0.04
0.01 0.02 0.02 0.02 0.02 0.02 0.02 0.02 0.02 0.02 0.02 0.03 0.03 0.02 0.03 0.04 0.05 0.06 0.06 0.05 0.03 0.03 0.04 0.05 0.06 0.06 0.04 0.04 0.05 0.06 0.05 0.05 0.04 0.05 0.05 0.06 0.06 0.06 0.05 0.04 0.04 0.03 0.03
0.02 0.03 0.02 0.02 0.02 0.04 0.05 0.04 0.03 0.03 0.03 0.03 0.03 0.02 0.02 0.03 0.05 0.05 0.03 0.03 0.03 0.04 0.04 0.04 0.05 0.05 0.05 0.05 0.05 0.06 0.06 0.07 0.07 0.07 0.07 0.07 0.07 0.05 0.03 0.02 0.02 0.03 0.04
0.02 0.03 0.04 0.03 0.04 0.04 0.05 0.06 0.05 0.03 0.03 0.03 0.03 0.02 0.02 0.02 0.02 0.03 0.03 0.03 0.03 0.04 0.04 0.04 0.05 0.06 0.06 0.06 0.06 0.06 0.06 0.06 0.06 0.06 0.06 0.05 0.05 0.05 0.04 0.03 0.02 0.03 0.04
0.05 0.05 0.04 0.03 0.03 0.03 0.04 0.06 0.08 0.07 0.04 0.03 0.02 0.02 0.02 0.02 0.02 0.03 0.03 0.03 0.03 0.03 0.03 0.03 0.04 0.04 0.05 0.05 0.06 0.06 0.06 0.06 0.05 0.04 0.04 0.03 0.03 0.03 0.03 0.04 0.04 0.03 0.03
0.06 0.05 0.04 0.04 0.04 0.03 0.03 0.04 0.05 0.06 0.05 0.04 0.02 0.02 0.02 0.02 0.02 0.02 0.02 0.02 0.02 0.03 0.03 0.02 0.03 0.03 0.03 0.04 0.04 0.04 0.05 0.05 0.04 0.04 0.03 0.02 0.02 0.02 0.02 0.02 0.03 0.03 0.03
0.03 0.03 0.04 0.06 0.05 0.04 0.05 0.04 0.03 0.02 0.02 0.02 0.02 0.02 0.01 0.01 0.02 0.02 0.02 0.03 0.03 0.03 0.03 0.03 0.03 0.03 0.03 0.03 0.03 0.03 0.03 0.03 0.02 0.02 0.02 0.01 0.01 0.01 0.01 0.01 0.01 0.02 0.03
0.01 0.03 0.06 0.08 0.07 0.06 0.05 0.03 0.02 0.02 0.01 0.01 0.01 0.01 0.01 0.01 0.01 0.02 0.03 0.03 0.04 0.05 0.05 0.05 0.04 0.03 0.02 0.02 0.01 0.01 0.01 0.01 0.02 0.02 0.02 0.01 0.01 0.01 0.00 0.01 0.01 0.02 0.02
MSLP
1006.76 1007.40 1008.06 1008.72 1009.38 1010.03 1010.68 1011.29 1011.87 1012.38 1012.81 1013.15 1013.42 1013.63 1013.82 1014.01 1014.22 1014.48 1014.77 1015.09 1015.43 1015.75 1016.04 1016.30 1016.54 1016.75 1016.97 1017.20 1017.45 1017.70 1017.96 1018.18 1018.35 1018.43 1018.42 1018.32 1018.13 1017.88 1017.60 1017.33 1017.09 1016.90 1016.79
1006.10 1006.67 1007.27 1007.88 1008.51 1009.16 1009.82 1010.49 1011.13 1011.73 1012.25 1012.68 1013.02 1013.29 1013.50 1013.69 1013.89 1014.11 1014.38 1014.69 1015.02 1015.36 1015.68 1015.97 1016.23 1016.47 1016.69 1016.91 1017.15 1017.40 1017.67 1017.94 1018.17 1018.35 1018.44 1018.44 1018.33 1018.13 1017.85 1017.52 1017.18 1016.86 1016.60
1005.44 1005.91 1006.41 1006.95 1007.52 1008.15 1008.81 1009.52 1010.24 1010.93 1011.56 1012.10 1012.54 1012.88 1013.13 1013.33 1013.51 1013.71 1013.94 1014.23 1014.55 1014.90 1015.24 1015.57 1015.86 1016.12 1016.36 1016.58 1016.81 1017.07 1017.34 1017.64 1017.93 1018.19 1018.39 1018.49 1018.49 1018.36 1018.12 1017.79 1017.39 1016.97 1016.58
1004.87 1005.21 1005.59 1006.02 1006.50 1007.06 1007.71 1008.44 1009.22 1010.00 1010.75 1011.42 1011.97 1012.39 1012.70 1012.93 1013.10 1013.28 1013.48 1013.73 1014.04 1014.40 1014.77 1015.13 1015.47 1015.77 1016.03 1016.26 1016.49 1016.74 1017.01 1017.31 1017.63 1017.95 1018.23 1018.43 1018.54 1018.51 1018.34 1018.04 1017.63 1017.17 1016.69
1004.44 1004.65 1004.88 1005.16 1005.52 1005.99 1006.58 1007.30 1008.12 1008.98 1009.84 1010.62 1011.30 1011.83 1012.21 1012.47 1012.66 1012.82 1012.99 1013.22 1013.52 1013.87 1014.27 1014.68 1015.07 1015.41 1015.71 1015.97 1016.20 1016.42 1016.67 1016.96 1017.27 1017.61 1017.94 1018.22 1018.41 1018.48 1018.41 1018.18 1017.81 1017.35 1016.85
1004.20 1004.26 1004.33 1004.46 1004.67 1005.01 1005.50 1006.17 1006.99 1007.90 1008.84 1009.73 1010.52 1011.16 1011.63 1011.95 1012.16 1012.32 1012.47 1012.68 1012.96 1013.32 1013.74 1014.19 1014.63 1015.04 1015.38 1015.66 1015.90 1016.11 1016.32 1016.56 1016.85 1017.17 1017.50 1017.82 1018.09 1018.25 1018.26 1018.13 1017.85 1017.45 1016.96
1004.15 1004.07 1003.98 1003.93 1003.97 1004.15 1004.52 1005.10 1005.87 1006.79 1007.78 1008.75 1009.64 1010.38 1010.94 1011.33 1011.57 1011.74 1011.89 1012.08 1012.35 1012.71 1013.15 1013.63 1014.13 1014.58 1014.98 1015.30 1015.54 1015.74 1015.91 1016.10 1016.33 1016.60 1016.92 1017.25 1017.55 1017.78 1017.90 1017.87 1017.70 1017.39 1016.98
1004.26 1004.05 1003.81 1003.59 1003.45 1003.46 1003.67 1004.12 1004.81 1005.69 1006.68 1007.70 1008.66 1009.48 1010.13 1010.59 1010.88 1011.07 1011.23 1011.41 1011.66 1012.01 1012.45 1012.97 1013.50 1014.01 1014.46 1014.81 1015.08 1015.27 1015.41 1015.55 1015.72 1015.94 1016.21 1016.52 1016.84 1017.13 1017.33 1017.42 1017.36 1017.17 1016.86
1004.48 1004.16 1003.79 1003.41 1003.10 1002.92 1002.96 1003.25 1003.82 1004.61 1005.57 1006.59 1007.59 1008.48 1009.20 1009.72 1010.08 1010.30 1010.46 1010.64 1010.87 1011.21 1011.65 1012.17 1012.73 1013.28 1013.78 1014.18 1014.48 1014.68 1014.81 1014.92 1015.04 1015.21 1015.44 1015.72 1016.05 1016.37 1016.65 1016.83 1016.89 1016.82 1016.62
1004.73 1004.33 1003.85 1003.34 1002.87 1002.53 1002.39 1002.51 1002.92 1003.60 1004.48 1005.47 1006.48 1007.40 1008.18 1008.77 1009.18 1009.44 1009.63 1009.80 1010.02 1010.34 1010.76 1011.27 1011.85 1012.42 1012.95 1013.40 1013.74 1013.98 1014.13 1014.23 1014.33 1014.47 1014.67 1014.94 1015.25 1015.60 1015.93 1016.19 1016.34 1016.38 1016.28
1004.98 1004.52 1003.96 1003.35 1002.76 1002.26 1001.96 1001.91 1002.17 1002.70 1003.48 1004.40 1005.38 1006.31 1007.13 1007.77 1008.24 1008.55 1008.77 1008.95 1009.16 1009.45 1009.85 1010.34 1010.90 1011.48 1012.04 1012.52 1012.91 1013.20 1013.39 1013.52 1013.64 1013.77 1013.96 1014.22 1014.54 1014.89 1015.24 1015.55 1015.78 1015.88 1015.86
1005.18 1004.69 1004.09 1003.41 1002.72 1002.11 1001.67 1001.47 1001.57 1001.96 1002.61 1003.44 1004.36 1005.29 1006.12 1006.81 1007.33 1007.70 1007.96 1008.16 1008.37 1008.64 1009.00 1009.45 1009.98 1010.55 1011.11 1011.62 1012.05 1012.39 1012.64 1012.82 1012.97 1013.14 1013.34 1013.60 1013.91 1014.27 1014.63 1014.95 1015.20 1015.36 1015.39
1005.31 1004.81 1004.20 1003.49 1002.76 1002.08 1001.54 1001.22 1001.17 1001.42 1001.94 1002.66 1003.51 1004.40 1005.24 1005.96 1006.54 1006.96 1007.27 1007.50 1007.71 1007.96 1008.28 1008.69 1009.17 1009.70 1010.24 1010.76 1011.21 1011.59 1011.90 1012.14 1012.34 1012.55 1012.77 1013.04 1013.35 1013.69 1014.04 1014.36 1014.61 1014.78 1014.83
1005.36 1004.88 1004.28 1003.59 1002.86 1002.15 1001.55 1001.15 1001.00 1001.12 1001.51 1002.12 1002.89 1003.72 1004.54 1005.28 1005.90 1006.38 1006.73 1007.00 1007.23 1007.47 1007.75 1008.10 1008.52 1008.99 1009.48 1009.97 1010.43 1010.82 1011.17 1011.45 1011.71 1011.95 1012.20 1012.48 1012.78 1013.11 1013.43 1013.72 1013.96 1014.12 1014.19
1005.31 1004.86 1004.30 1003.66 1002.97 1002.29 1001.69 1001.24 1001.02 1001.05 1001.33 1001.83 1002.50 1003.26 1004.05 1004.79 1005.43 1005.96 1006.36 1006.67 1006.92 1007.15 1007.40 1007.68 1008.03 1008.42 1008.84 1009.27 1009.69 1010.07 1010.42 1010.73 1011.02 1011.29 1011.56 1011.84 1012.13 1012.43 1012.72 1012.98 1013.20 1013.35 1013.43
1005.10 1004.68 1004.20 1003.64 1003.03 1002.42 1001.87 1001.44 1001.19 1001.16 1001.35 1001.75 1002.33 1003.02 1003.75 1004.47 1005.11 1005.66 1006.11 1006.45 1006.71 1006.94 1007.15 1007.37 1007.64 1007.93 1008.26 1008.61 1008.97 1009.32 1009.64 1009.95 1010.24 1010.52 1010.80 1011.08 1011.36 1011.63 1011.89 1012.13 1012.33 1012.48 1012.59
1004.65 1004.28 1003.87 1003.42 1002.94 1002.45 1002.00 1001.63 1001.41 1001.35 1001.49 1001.82 1002.31 1002.91 1003.57 1004.25 1004.87 1005.43 1005.88 1006.24 1006.52 1006.73 1006.91 1007.09 1007.27 1007.48 1007.71 1007.97 1008.25 1008.53 1008.82 1009.10 1009.38 1009.65 1009.93 1010.20 1010.47 1010.73 1010.98 1011.20 1011.40 1011.57 1011.72
1003.86 1003.54 1003.23 1002.91 1002.57 1002.24 1001.94 1001.68 1001.53 1001.51 1001.64 1001.91 1002.32 1002.84 1003.43 1004.04 1004.62 1005.15 1005.60 1005.96 1006.24 1006.44 1006.60 1006.72 1006.84 1006.97 1007.12 1007.30 1007.50 1007.72 1007.96 1008.21 1008.47 1008.74 1009.01 1009.28 1009.55 1009.81 1010.06 1010.29 1010.51 1010.72 1010.93
1002.68 1002.40 1002.18 1002.00 1001.84 1001.70 1001.57 1001.48 1001.45 1001.50 1001.65 1001.91 1002.27 1002.72 1003.23 1003.76 1004.28 1004.77 1005.19 1005.53 1005.79 1005.99 1006.12 1006.22 1006.30 1006.38 1006.48 1006.60 1006.74 1006.92 1007.13 1007.36 1007.62 1007.88 1008.16 1008.44 1008.72 1009.00 1009.27 1009.53 1009.79 1010.04 1010.30
1001.09 1000.84 1000.72 1000.69 1000.71 1000.77 1000.84 1000.94 1001.07 1001.23 1001.45 1001.73 1002.07 1002.46 1002.90 1003.35 1003.81 1004.23 1004.60 1004.92 1005.16 1005.35 1005.48 1005.57 1005.64 1005.71 1005.79 1005.89 1006.02 1006.20 1006.40 1006.64 1006.91 1007.20 1007.50 1007.81 1008.12 1008.42 1008.72 1009.02 1009.31 1009.61 1009.92
999.18 998.97 998.94 999.04 999.23 999.49 999.78 1000.08 1000.38 1000.68 1000.99 1001.32 1001.67 1002.04 1002.42 1002.81 1003.19 1003.55 1003.87 1004.15 1004.38 1004.56 1004.70 1004.81 1004.90 1005.00 1005.10 1005.24 1005.40 1005.61 1005.85 1006.13 1006.43 1006.76 1007.10 1007.45 1007.79 1008.13 1008.47 1008.80 1009.12 1009.46 1009.80
997.14 996.96 996.99 997.21 997.56 998.00 998.48 998.97 999.45 999.90 1000.33 1000.73 1001.10 1001.47 1001.82 1002.16 1002.48 1002.79 1003.07 1003.32 1003.53 1003.72 1003.89 1004.03 1004.18 1004.33 1004.50 1004.70 1004.93 1005.20 1005.51 1005.85 1006.21 1006.59 1006.98 1007.37 1007.75 1008.12 1008.48 1008.83 1009.18 1009.52 1009.86
995.23 995.06 995.15 995.46 995.93 996.51 997.15 997.80 998.43 999.02 999.55 1000.02 1000.44 1000.82 1001.16 1001.48 1001.76 1002.03 1002.28 1002.51 1002.73 1002.94 1003.14 1003.35 1003.56 1003.79 1004.05 1004.33 1004.65 1005.01 1005.39 1005.80 1006.22 1006.65 1007.08 1007.50 1007.91 1008.30 1008.66 1009.01 1009.35 1009.68 1010.00
993.72 993.56 993.68 994.04 994.59 995.26 996.00 996.76 997.49 998.17 998.79 999.33 999.79 1000.20 1000.55 1000.85 1001.13 1001.38 1001.63 1001.86 1002.10 1002.34 1002.59 1002.86 1003.14 1003.46 1003.80 1004.17 1004.57 1005.00 1005.45 1005.91 1006.38 1006.84 1007.29 1007.72 1008.13 1008.51 1008.86 1009.19 1009.50 1009.79 1010.07
992.87 992.72 992.85 993.22 993.78 994.48 995.24 996.04 996.81 997.54 998.19 998.77 999.26 999.69 1000.06 1000.38 1000.66 1000.93 1001.19 1001.46 1001.73 1002.01 1002.32 1002.64 1003.00 1003.38 1003.79 1004.23 1004.68 1005.15 1005.64 1006.12 1006.59 1007.05 1007.48 1007.89 1008.27 1008.62 1008.94 1009.23 1009.49 1009.74 1009.96
992.85 992.70 992.81 993.15 993.67 994.32 995.04 995.79 996.53 997.23 997.87 998.44 998.94 999.38 999.77 1000.12 1000.44 1000.75 1001.05 1001.36 1001.68 1002.01 1002.37 1002.75 1003.15 1003.58 1004.02 1004.48 1004.95 1005.42 1005.89 1006.34 1006.78 1007.19 1007.57 1007.92 1008.25 1008.54 1008.81 1009.05 1009.27 1009.47 1009.65
Thickness
5824 5821 5817 5814 5810 5804 5799 5795 5792 5788 5785 5783 5781 5778 5776 5775 5774 5773 5770 5768 5766 5765 5763 5764 5762 5760 5760 5758 5758 5756 5755 5754 5754 5752 5750 5753 5756 5755 5755 5755 5755 5755 5753
5824 5820 5818 5815 5812 5806 5801 5797 5793 5791 5788 5786 5783 5781 5779 5778 5776 5774 5770 5768 5766 5765 5765 5762 5763 5761 5759 5757 5756 5754 5754 5754 5754 5750 5747 5746 5748 5751 5755 5755 5754 5754 5754
5826 5822 5819 5817 5814 5809 5805 5802 5797 5794 5790 5788 5785 5782 5778 5777 5776 5773 5771 5769 5767 5765 5764 5763 5762 5760 5760 5758 5756 5755 5752 5751 5753 5753 5748 5743 5742 5746 5751 5753 5753 5752 5752
5832 5827 5823 5819 5816 5814 5810 5805 5800 5795 5792 5789 5786 5782 5778 5776 5776 5775 5773 5770 5768 5766 5764 5763 5761 5760 5761 5759 5758 5757 5754 5751 5750 5751 5750 5749 5749 5742 5743 5749 5752 5752 5750
5836 5831 5828 5824 5821 5818 5813 5807 5802 5797 5794 5791 5787 5783 5781 5780 5779 5776 5772 5770 5769 5767 5765 5763 5761 5760 5760 5759 5757 5756 5754 5753 5751 5750 5750 5748 5746 5746 5741 5740 5744 5748 5750
5839 5835 5833 5828 5823 5820 5815 5810 5803 5798 5795 5792 5789 5785 5782 5779 5777 5774 5772 5770 5770 5768 5766 5764 5762 5761 5760 5759 5757 5756 5754 5753 5751 5750 5750 5747 5745 5744 5743 5740 5741 5743 5746
5840 5835 5831 5828 5824 5820 5816 5812 5805 5799 5796 5793 5789 5786 5783 5780 5776 5774 5773 5771 5771 5769 5766 5765 5762 5761 5759 5758 5757 5755 5754 5752 5749 5748 5748 5749 5748 5747 5744 5741 5741 5741 5744
5841 5838 5835 5830 5826 5822 5818 5814 5807 5801 5798 5794 5790 5787 5784 5782 5780 5776 5776 5773 5772 5771 5767 5764 5761 5759 5758 5757 5755 5755 5752 5750 5748 5748 5746 5746 5747 5747 5745 5741 5739 5737 5739
5838 5837 5835 5831 5827 5823 5820 5815 5808 5802 5798 5795 5791 5787 5784 5782 5781 5778 5775 5774 5771 5770 5766 5762 5760 5759 5756 5755 5754 5753 5750 5749 5748 5748 5745 5744 5745 5744 5744 5742 5739 5734 5731
5834 5834 5832 5830 5827 5824 5820 5816 5810 5803 5799 5796 5792 5788 5785 5782 5780 5778 5774 5772 5770 5768 5764 5761 5759 5757 5755 5753 5752 5751 5748 5746 5745 5744 5742 5741 5742 5741 5740 5739 5738 5736 5733
5830 5830 5829 5827 5825 5823 5819 5813 5808 5802 5798 5795 5791 5788 5785 5782 5779 5776 5773 5770 5768 5765 5762 5760 5757 5756 5753 5751 5749 5749 5746 5744 5742 5741 5739 5737 5736 5737 5737 5736 5735 5733 5731
5825 5825 5824 5822 5819 5817 5815 5811 5807 5803 5798 5794 5789 5785 5783 5780 5777 5774 5771 5768 5765 5763 5760 5758 5755 5753 5751 5749 5747 5744 5743 5741 5738 5737 5735 5734 5733 5731 5732 5730 5730 5729 5727
5816 5817 5816 5815 5812 5811 5809 5807 5803 5801 5797 5792 5787 5783 5781 5777 5774 5772 5768 5765 5762 5760 5758 5755 5752 5750 5748 5746 5744 5742 5740 5738 5735 5733 5731 5730 5728 5726 5726 5725 5725 5725 5724
5806 5807 5806 5805 5805 5803 5802 5801 5798 5797 5794 5789 5785 5781 5779 5776 5773 5770 5766 5763 5759 5757 5754 5752 5749 5747 5744 5742 5741 5739 5737 5734 5732 5730 5728 5726 5724 5722 5720 5720 5719 5719 5717
5797 5797 5797 5797 5797 5796 5795 5794 5793 5791 5789 5785 5782 5779 5777 5774 5770 5766 5763 5760 5757 5755 5751 5748 5745 5743 5741 5739 5736 5734 5733 5730 5728 5726 5724 5722 5719 5716 5714 5716 5714 5713 5712
5788 5790 5790 5790 5790 5789 5789 5788 5787 5786 5783 5780 5778 5775 5772 5769 5766 5763 5760 5756 5753 5751 5748 5745 5743 5740 5739 5733 5729 5727 5727 5725 5723 5720 5718 5716 5714 5711 5708 5706 5705 5704 5703
5781 5781 5782 5783 5783 5784 5784 5782 5781 5780 5777 5774 5772 5770 5767 5764 5761 5759 5756 5752 5749 5746 5743 5741 5739 5736 5732 5727 5723 5720 5720 5719 5717 5714 5712 5712 5710 5706 5704 5701 5698 5697 5695
5772 5774 5776 5776 5777 5778 5778 5776 5775 5772 5771 5768 5767 5765 5762 5759 5756 5752 5749 5746 5744 5741 5738 5736 5734 5730 5727 5721 5718 5715 5714 5714 5711 5708 5706 5703 5701 5700 5697 5696 5694 5693 5691
5764 5765 5767 5769 5770 5769 5769 5768 5766 5765 5763 5761 5760 5759 5757 5753 5749 5745 5742 5739 5736 5733 5731 5729 5727 5724 5720 5715 5711 5707 5708 5706 5704 5702 5700 5697 5694 5690 5687 5687 5686 5685 5684
5755 5756 5758 5760 5759 5759 5759 5757 5756 5755 5753 5753 5752 5751 5749 5745 5741 5738 5734 5732 5729 5726 5724 5722 5720 5717 5714 5708 5704 5700 5702 5700 5698 5695 5692 5687 5684 5680 5678 5678 5677 5675 5676
5743 5745 5747 5747 5748 5748 5748 5746 5745 5744 5745 5744 5743 5741 5739 5737 5734 5730 5727 5725 5723 5719 5716 5713 5711 5708 5705 5700 5696 5693 5693 5692 5689 5687 5684 5680 5673 5670 5668 5668 5668 5666 5665
5733 5734 5734 5734 5735 5736 5736 5735 5734 5735 5735 5734 5733 5730 5729 5728 5726 5721 5717 5716 5713 5710 5706 5704 5701 5700 5696 5692 5688 5685 5682 5681 5680 5677 5675 5670 5663 5660 5658 5658 5656 5655 5653
5722 5723 5724 5724 5724 5725 5725 5724 5724 5724 5724 5723 5722 5720 5719 5717 5715 5712 5709 5706 5704 5703 5701 5697 5695 5692 5689 5684 5679 5675 5673 5670 5669 5668 5662 5658 5654 5651 5650 5647 5646 5646 5647
5711 5712 5713 5713 5713 5714 5715 5715 5714 5714 5713 5711 5710 5710 5708 5706 5704 5702 5700 5698 5696 5695 5692 5689 5686 5684 5680 5677 5673 5669 5665 5660 5658 5657 5652 5647 5645 5643 5641 5639 5639 5639 5639
5701 5703 5704 5704 5704 5704 5704 5704 5704 5704 5703 5702 5700 5700 5699 5697 5693 5691 5689 5688 5686 5685 5682 5680 5678 5674 5671 5666 5661 5659 5657 5655 5653 5647 5645 5644 5642 5639 5636 5634 5632 5631 5630
5692 5693 5694 5695 5695 5695 5694 5694 5694 5694 5693 5692 5691 5692 5690 5688 5686 5683 5678 5673 5672 5669 5667 5666 5664 5662 5657 5652 5648 5645 5642 5639 5637 5636 5637 5634 5632 5630 5628 5627 5624 5622 5621